Lemoore NAS, CA

12:33 PM PST on November 18, 2017 (GMT -0800)
Lemoore Naval Air Station

Weather History for KNLC - April, 2014

Change the Weather History Date:

Sunday, April 13, 2014

  Actual Average Record
Temperature  
Mean Temperature 76 °F -  
Max Temperature 78 °F 71 °F 93 °F (2008)
Min Temperature 75 °F 45 °F 35 °F (2007)
Cooling Degree Days 12    
Growing Degree Days 26 (Base 50)    
Moisture  
Dew Point 47 °F    
Average Humidity 36    
Maximum Humidity 38    
Minimum Humidity 33    
Precipitation  
Precipitation 0.00 in - - ()
Sea Level Pressure  
Sea Level Pressure 29.95 in    
Wind  
Wind Speed 11 mph (NNW)    
Max Wind Speed 17 mph    
Max Gust Speed 21 mph    
Visibility 10 miles    
Events      
Averages and records for this station are not official NWS values.
T = Trace of Precipitation, MM = Missing Value Source: NWS Daily Summary

Daily Weather History Graph

Daily Weather History Graph

Search for Another Location

Airport or City:

Trip Planner

Search our weather history database for the weather conditions in past years. The results will help you decide how hot, cold, wet, or windy it might be!

Date:

Astronomy

Apr. 13, 2014 Rise Set
Actual Time 6:28 AM PDT 7:32 PM PDT
Civil Twilight 6:02 AM PDT 7:58 PM PDT
Nautical Twilight 5:31 AM PDT 8:30 PM PDT
Astronomical Twilight 4:58 AM PDT 9:02 PM PDT
Moon 6:17 PM PDT (4/13) 5:27 AM PDT (4/13)
Length of Visible Light 13h 56m
Length of Day
13h 03m
Waxing Gibbous, 97% of the Moon is Illuminated
Apr 13
Waxing Gibbous
Apr 15
Full
Apr 22
Last Quarter
Apr 28
New
May 6
First Quarter

Hourly Weather History & Observations

Time (PDT) Temp. Dew Point Humidity Pressure Visibility Wind Dir Wind Speed Gust Speed Precip Events Conditions
12:56 AM - - N/A% 29.88 in 10.0 mi NNW 8.1 mph - N/A   Clear
1:56 AM - - N/A% 29.89 in 10.0 mi NNW 13.8 mph - N/A   Clear
2:56 AM - - N/A% 29.89 in 10.0 mi NW 9.2 mph - N/A   Clear
3:56 AM - - N/A% 29.90 in 10.0 mi NW 10.4 mph - N/A   Clear
4:56 AM - - N/A% 29.90 in 10.0 mi NW 11.5 mph - N/A   Clear
5:56 AM - - N/A% 29.93 in 10.0 mi NW 11.5 mph - N/A   Clear
6:56 AM - - N/A% 29.95 in 10.0 mi NW 11.5 mph - N/A   Clear
7:56 AM - - N/A% 29.98 in 10.0 mi NNW 16.1 mph - N/A   Clear
8:56 AM - - N/A% 30.00 in 10.0 mi NNW 17.3 mph - N/A   Clear
9:56 AM - - N/A% 30.01 in 10.0 mi North 16.1 mph - N/A   Clear
10:56 AM - - N/A% 30.01 in 10.0 mi NNW 12.7 mph - N/A   Clear
11:56 AM - - N/A% 30.01 in 10.0 mi North 11.5 mph 18.4 mph N/A   Clear
12:56 PM - - N/A% 29.99 in 10.0 mi Variable 4.6 mph 17.3 mph N/A   Clear
1:56 PM - - N/A% 29.98 in 10.0 mi North - - N/A   Clear
2:56 PM 75.9 °F 46.9 °F 36% 29.96 in 10.0 mi North 12.7 mph 20.7 mph N/A   Clear
3:56 PM 75.9 °F 46.9 °F 36% 29.94 in 10.0 mi NNW 6.9 mph - N/A   Clear
4:56 PM 77.0 °F 48.0 °F 36% 29.93 in 10.0 mi NNW 11.5 mph - N/A   Clear
5:56 PM 78.1 °F 46.9 °F 33% 29.92 in 10.0 mi North 11.5 mph - N/A   Clear
6:56 PM 75.9 °F 48.9 °F 38% 29.92 in 10.0 mi North 9.2 mph - N/A   Clear
7:56 PM 75.9 °F 46.9 °F 36% 29.93 in 10.0 mi NNE 5.8 mph - N/A   Clear
8:56 PM - - N/A% 29.96 in 10.0 mi NNW 5.8 mph - N/A   Clear
9:56 PM - - N/A% 29.98 in 10.0 mi WNW 10.4 mph - N/A   Clear
10:56 PM - - N/A% 29.99 in 10.0 mi NW 8.1 mph - N/A   Clear
11:56 PM - - N/A% 30.00 in 10.0 mi NNW 6.9 mph - N/A   Clear